This is the latest recevied weather packets stored in our database for station/object WD4LSS. If no packets are shown the sender has not sent any weather packets the latest 10 day(s).
| Time | Temp. | Humidity | Pressure | Rain* | Wind** | Luminosity | Snow |
|---|---|---|---|---|---|---|---|
| 1777849516 | 18.33° C | 35% | 1015.7 hPa | 0 mm | - | - | - |
| 1777846216 | 19.44° C | 34% | 1016 hPa | 0 mm | - | - | - |
| 1777843216 | 20.56° C | 31% | 1016.7 hPa | 0 mm | - | - | - |
| 1777842316 | 20.56° C | 31% | 1016.8 hPa | 0 mm | - | - | - |
| 1777842036 | 20.56° C | 31% | 1016.7 hPa | 0 mm | - | - | - |
| 1777841716 | 20.56° C | 32% | 1016.9 hPa | 0 mm | - | - | - |
| 1777840836 | 20.56° C | 33% | 1016.9 hPa | 0 mm | - | - | - |
| 1777839916 | 20° C | 33% | 1017.1 hPa | 0 mm | - | - | - |
| 1777839016 | 20° C | 29% | 1017.4 hPa | 0 mm | - | - | - |
| 1777838716 | 20° C | 32% | 1017.4 hPa | 0 mm | - | - | - |
| 1777838416 | 20° C | 31% | 1017.5 hPa | 0 mm | - | - | - |
| 1777837516 | 18.89° C | 32% | 1017.7 hPa | 0 mm | - | - | - |
| 1777837216 | 18.89° C | 32% | 1017.8 hPa | 0 mm | - | - | - |
| 1777836016 | 18.89° C | 31% | 1017.9 hPa | 0 mm | - | - | - |
| 1777833916 | 18.33° C | 36% | 1018.7 hPa | 0 mm | - | - | - |
| 1777833036 | 17.78° C | 38% | 1018.8 hPa | 0 mm | - | - | - |
| 1777825518 | 15° C | 41% | 1020.4 hPa | 0 mm | - | - | - |
| 1777825217 | 15° C | 44% | 1020.4 hPa | 0 mm | - | - | - |
| 1777824937 | 14.44° C | 41% | 1020.6 hPa | 0 mm | - | - | - |
| 1777823418 | 13.33° C | 47% | 1020.7 hPa | 0 mm | - | - | - |
| 1777822816 | 13.33° C | 47% | 1020.8 hPa | 0 mm | - | - | - |
| 1777821917 | 12.78° C | 46% | 1020.9 hPa | 0 mm | - | - | - |
| 1777819517 | 12.22° C | 52% | 1021 hPa | 0 mm | - | - | - |
| 1777819217 | 11.67° C | 51% | 1020.9 hPa | 0 mm | - | - | - |
| 1777817417 | 11.11° C | 54% | 1021 hPa | 0 mm | - | - | - |
* Rain latest hour (hover to see other rain measurements)
** Current wind speed in m/s (hover to see current wind gust speed)